Datum / Uhrzeit;kW;
01.01.2022 00:15;109.548;
01.01.2022 00:30;107.650;
01.01.2022 00:45;106.006;
01.01.2022 01:00;99.534;
01.01.2022 01:15;96.799;
01.01.2022 01:30;96.734;
01.01.2022 01:45;95.494;
01.01.2022 02:00;96.028;
01.01.2022 02:15;94.611;
01.01.2022 02:30;95.145;
01.01.2022 02:45;92.682;
01.01.2022 03:00;86.838;
01.01.2022 03:15;87.155;
01.01.2022 03:30;90.676;
01.01.2022 03:45;93.218;
01.01.2022 04:00;90.994;
01.01.2022 04:15;94.374;
01.01.2022 04:30;95.814;
01.01.2022 04:45;98.261;
01.01.2022 05:00;97.744;
01.01.2022 05:15;102.202;
01.01.2022 05:30;103.438;
01.01.2022 05:45;101.566;
01.01.2022 06:00;102.149;
01.01.2022 06:15;101.176;
01.01.2022 06:30;102.151;
01.01.2022 06:45;102.303;
01.01.2022 07:00;107.528;
01.01.2022 07:15;119.168;
01.01.2022 07:30;121.652;
01.01.2022 07:45;123.212;
01.01.2022 08:00;119.457;
01.01.2022 08:15;117.726;
01.01.2022 08:30;121.155;
01.01.2022 08:45;128.273;
01.01.2022 09:00;130.608;
01.01.2022 09:15;130.700;
01.01.2022 09:30;132.464;
01.01.2022 09:45;137.329;
01.01.2022 10:00;143.467;
01.01.2022 10:15;142.888;
01.01.2022 10:30;143.342;
01.01.2022 10:45;149.825;
01.01.2022 11:00;156.268;
01.01.2022 11:15;158.840;
01.01.2022 11:30;157.740;
01.01.2022 11:45;158.295;
01.01.2022 12:00;160.087;
01.01.2022 12:15;163.456;
01.01.2022 12:30;164.049;
01.01.2022 12:45;162.098;
01.01.2022 13:00;160.867;
01.01.2022 13:15;152.902;
01.01.2022 13:30;147.495;
01.01.2022 13:45;144.831;
01.01.2022 14:00;142.646;
01.01.2022 14:15;138.593;
01.01.2022 14:30;135.781;
01.01.2022 14:45;136.998;
01.01.2022 15:00;140.142;
01.01.2022 15:15;146.266;
01.01.2022 15:30;149.338;
01.01.2022 15:45;150.544;
01.01.2022 16:00;157.564;
01.01.2022 16:15;169.024;
01.01.2022 16:30;175.003;
01.01.2022 16:45;177.429;
01.01.2022 17:00;177.329;
01.01.2022 17:15;190.255;
01.01.2022 17:30;200.763;
01.01.2022 17:45;203.833;
01.01.2022 18:00;202.167;
01.01.2022 18:15;206.139;
01.01.2022 18:30;204.885;
01.01.2022 18:45;202.409;
01.01.2022 19:00;198.639;
01.01.2022 19:15;194.151;
01.01.2022 19:30;186.693;
01.01.2022 19:45;178.219;
01.01.2022 20:00;172.988;
01.01.2022 20:15;169.477;
01.01.2022 20:30;159.686;
01.01.2022 20:45;150.527;
01.01.2022 21:00;143.786;
01.01.2022 21:15;137.616;
01.01.2022 21:30;139.508;
01.01.2022 21:45;145.103;
01.01.2022 22:00;148.555;
01.01.2022 22:15;159.272;
01.01.2022 22:30;154.020;
01.01.2022 22:45;147.476;
01.01.2022 23:00;150.004;
01.01.2022 23:15;148.124;
01.01.2022 23:30;143.051;
01.01.2022 23:45;135.663;
02.01.2022 00:00;132.462;
02.01.2022 00:15;131.087;
02.01.2022 00:30;125.866;
02.01.2022 00:45;118.667;
02.01.2022 01:00;115.643;
02.01.2022 01:15;112.481;
02.01.2022 01:30;109.925;
02.01.2022 01:45;109.345;
02.01.2022 02:00;112.477;
02.01.2022 02:15;119.494;
02.01.2022 02:30;119.336;
02.01.2022 02:45;116.741;
02.01.2022 03:00;111.916;
02.01.2022 03:15;110.785;
02.01.2022 03:30;111.293;
02.01.2022 03:45;108.734;
02.01.2022 04:00;109.344;
02.01.2022 04:15;116.232;
02.01.2022 04:30;118.221;
02.01.2022 04:45;120.411;
02.01.2022 05:00;119.813;
02.01.2022 05:15;124.577;
02.01.2022 05:30;125.971;
02.01.2022 05:45;127.296;
02.01.2022 06:00;127.926;
02.01.2022 06:15;125.440;
02.01.2022 06:30;126.018;
02.01.2022 06:45;126.500;
02.01.2022 07:00;127.158;
02.01.2022 07:15;128.676;
02.01.2022 07:30;129.207;
02.01.2022 07:45;132.093;
02.01.2022 08:00;133.116;
02.01.2022 08:15;128.690;
02.01.2022 08:30;127.736;
02.01.2022 08:45;129.413;
02.01.2022 09:00;131.696;
02.01.2022 09:15;135.137;
02.01.2022 09:30;138.280;
02.01.2022 09:45;138.246;
02.01.2022 10:00;135.803;
02.01.2022 10:15;134.870;
02.01.2022 10:30;135.552;
02.01.2022 10:45;135.247;
02.01.2022 11:00;137.661;
02.01.2022 11:15;134.955;
02.01.2022 11:30;141.204;
02.01.2022 11:45;155.697;
02.01.2022 12:00;162.599;
02.01.2022 12:15;161.164;
02.01.2022 12:30;141.013;
02.01.2022 12:45;129.497;
02.01.2022 13:00;112.466;
02.01.2022 13:15;108.130;
02.01.2022 13:30;101.220;
02.01.2022 13:45;99.310;
02.01.2022 14:00;102.060;
02.01.2022 14:15;83.292;
02.01.2022 14:30;92.819;
02.01.2022 14:45;99.177;
02.01.2022 15:00;110.020;
02.01.2022 15:15;97.550;
02.01.2022 15:30;94.903;
02.01.2022 15:45;103.506;
02.01.2022 16:00;120.455;
02.01.2022 16:15;125.922;
02.01.2022 16:30;130.356;
02.01.2022 16:45;137.718;
02.01.2022 17:00;138.728;
02.01.2022 17:15;139.874;
02.01.2022 17:30;145.959;
02.01.2022 17:45;152.209;
02.01.2022 18:00;151.456;
02.01.2022 18:15;151.666;
02.01.2022 18:30;151.289;
02.01.2022 18:45;149.206;
02.01.2022 19:00;145.107;
02.01.2022 19:15;146.769;
02.01.2022 19:30;141.065;
02.01.2022 19:45;143.339;
02.01.2022 20:00;139.878;
02.01.2022 20:15;130.207;
02.01.2022 20:30;126.829;
02.01.2022 20:45;121.672;
02.01.2022 21:00;105.600;
02.01.2022 21:15;96.857;
02.01.2022 21:30;94.250;
02.01.2022 21:45;95.598;
02.01.2022 22:00;96.635;
02.01.2022 22:15;98.370;
02.01.2022 22:30;95.773;
02.01.2022 22:45;92.442;
02.01.2022 23:00;89.324;
02.01.2022 23:15;86.410;
02.01.2022 23:30;84.301;
02.01.2022 23:45;81.427;
03.01.2022 00:00;78.308;
03.01.2022 00:15;77.026;
03.01.2022 00:30;73.961;
03.01.2022 00:45;72.866;
03.01.2022 01:00;72.479;
03.01.2022 01:15;73.398;
03.01.2022 01:30;72.706;
03.01.2022 01:45;75.736;
03.01.2022 02:00;73.719;
03.01.2022 02:15;76.142;
03.01.2022 02:30;77.722;
03.01.2022 02:45;78.498;
03.01.2022 03:00;77.679;
03.01.2022 03:15;83.339;
03.01.2022 03:30;84.975;
03.01.2022 03:45;88.817;
03.01.2022 04:00;90.827;
03.01.2022 04:15;88.699;
03.01.2022 04:30;84.304;
03.01.2022 04:45;85.705;
03.01.2022 05:00;91.573;
03.01.2022 05:15;94.663;
03.01.2022 05:30;94.009;
03.01.2022 05:45;94.274;
03.01.2022 06:00;98.196;
03.01.2022 06:15;100.995;
03.01.2022 06:30;109.808;
03.01.2022 06:45;119.274;
03.01.2022 07:00;118.999;
03.01.2022 07:15;118.700;
03.01.2022 07:30;121.925;
03.01.2022 07:45;124.816;
03.01.2022 08:00;123.035;
03.01.2022 08:15;122.784;
03.01.2022 08:30;124.743;
03.01.2022 08:45;139.388;
03.01.2022 09:00;151.810;
03.01.2022 09:15;155.418;
03.01.2022 09:30;155.662;
03.01.2022 09:45;153.337;
03.01.2022 10:00;158.521;
03.01.2022 10:15;157.249;
03.01.2022 10:30;156.512;
03.01.2022 10:45;155.506;
03.01.2022 11:00;153.531;
03.01.2022 11:15;154.737;
03.01.2022 11:30;149.483;
03.01.2022 11:45;142.159;
03.01.2022 12:00;139.138;
03.01.2022 12:15;132.479;
03.01.2022 12:30;140.967;
03.01.2022 12:45;141.374;
03.01.2022 13:00;135.437;
03.01.2022 13:15;132.421;
03.01.2022 13:30;130.109;
03.01.2022 13:45;130.785;
03.01.2022 14:00;132.979;
03.01.2022 14:15;129.516;
03.01.2022 14:30;132.724;
03.01.2022 14:45;135.155;
03.01.2022 15:00;134.482;
03.01.2022 15:15;136.031;
03.01.2022 15:30;133.853;
03.01.2022 15:45;135.602;
03.01.2022 16:00;137.566;
03.01.2022 16:15;139.808;
03.01.2022 16:30;138.929;
03.01.2022 16:45;134.126;
03.01.2022 17:00;134.876;
03.01.2022 17:15;141.528;
03.01.2022 17:30;143.008;
03.01.2022 17:45;151.461;
03.01.2022 18:00;158.824;
03.01.2022 18:15;156.603;
03.01.2022 18:30;151.887;
03.01.2022 18:45;147.248;
03.01.2022 19:00;150.828;
03.01.2022 19:15;145.818;
03.01.2022 19:30;143.023;
03.01.2022 19:45;144.381;
03.01.2022 20:00;152.633;
03.01.2022 20:15;158.204;
03.01.2022 20:30;156.283;
03.01.2022 20:45;154.015;
03.01.2022 21:00;153.993;
03.01.2022 21:15;147.395;
03.01.2022 21:30;148.448;
03.01.2022 21:45;153.819;
03.01.2022 22:00;159.343;
03.01.2022 22:15;161.517;
03.01.2022 22:30;157.351;
03.01.2022 22:45;156.342;
03.01.2022 23:00;152.694;
03.01.2022 23:15;144.985;
03.01.2022 23:30;145.385;
03.01.2022 23:45;152.247;
04.01.2022 00:00;153.724;
04.01.2022 00:15;156.970;
04.01.2022 00:30;153.411;
04.01.2022 00:45;151.360;
04.01.2022 01:00;144.596;
04.01.2022 01:15;137.751;
04.01.2022 01:30;136.128;
04.01.2022 01:45;133.530;
04.01.2022 02:00;132.242;
04.01.2022 02:15;127.503;
04.01.2022 02:30;115.880;
04.01.2022 02:45;104.078;
04.01.2022 03:00;94.070;
04.01.2022 03:15;92.827;
04.01.2022 03:30;88.310;
04.01.2022 03:45;89.800;
04.01.2022 04:00;95.905;
04.01.2022 04:15;94.589;
04.01.2022 04:30;94.708;
04.01.2022 04:45;97.512;
04.01.2022 05:00;103.908;
04.01.2022 05:15;107.751;
04.01.2022 05:30;109.359;
04.01.2022 05:45;115.195;
04.01.2022 06:00;121.490;
04.01.2022 06:15;127.872;
04.01.2022 06:30;133.199;
04.01.2022 06:45;138.436;
04.01.2022 07:00;141.477;
04.01.2022 07:15;148.291;
04.01.2022 07:30;152.408;
04.01.2022 07:45;156.542;
04.01.2022 08:00;160.854;
04.01.2022 08:15;165.203;
04.01.2022 08:30;173.478;
04.01.2022 08:45;181.064;
04.01.2022 09:00;183.375;
04.01.2022 09:15;178.655;
04.01.2022 09:30;200.991;
04.01.2022 09:45;213.868;
04.01.2022 10:00;223.438;
04.01.2022 10:15;232.148;
04.01.2022 10:30;228.694;
04.01.2022 10:45;229.194;
04.01.2022 11:00;231.160;
04.01.2022 11:15;223.766;
04.01.2022 11:30;205.889;
04.01.2022 11:45;193.214;
04.01.2022 12:00;189.643;
04.01.2022 12:15;191.638;
04.01.2022 12:30;199.764;
04.01.2022 12:45;200.574;
04.01.2022 13:00;207.862;
04.01.2022 13:15;222.720;
04.01.2022 13:30;233.592;
04.01.2022 13:45;239.792;
04.01.2022 14:00;244.313;
04.01.2022 14:15;241.583;
04.01.2022 14:30;229.822;
04.01.2022 14:45;234.884;
04.01.2022 15:00;240.050;
04.01.2022 15:15;235.586;
04.01.2022 15:30;221.550;
04.01.2022 15:45;213.243;
04.01.2022 16:00;211.447;
04.01.2022 16:15;211.437;
04.01.2022 16:30;214.120;
04.01.2022 16:45;212.005;
04.01.2022 17:00;201.026;
04.01.2022 17:15;199.346;
04.01.2022 17:30;197.965;
04.01.2022 17:45;200.572;
04.01.2022 18:00;209.122;
04.01.2022 18:15;219.095;
04.01.2022 18:30;219.621;
04.01.2022 18:45;212.439;
04.01.2022 19:00;210.456;
04.01.2022 19:15;209.517;
04.01.2022 19:30;211.146;
04.01.2022 19:45;210.610;
04.01.2022 20:00;204.458;
04.01.2022 20:15;196.572;
04.01.2022 20:30;188.865;
04.01.2022 20:45;182.440;
04.01.2022 21:00;176.634;
04.01.2022 21:15;170.489;
04.01.2022 21:30;165.489;
04.01.2022 21:45;164.900;
04.01.2022 22:00;162.186;
04.01.2022 22:15;159.291;
04.01.2022 22:30;150.326;
04.01.2022 22:45;144.523;
04.01.2022 23:00;141.922;
04.01.2022 23:15;141.037;
04.01.2022 23:30;135.669;
04.01.2022 23:45;133.569;
05.01.2022 00:00;141.141;
05.01.2022 00:15;141.135;
05.01.2022 00:30;130.467;
05.01.2022 00:45;123.959;
05.01.2022 01:00;121.720;
05.01.2022 01:15;120.136;
05.01.2022 01:30;125.745;
05.01.2022 01:45;127.064;
05.01.2022 02:00;125.231;
05.01.2022 02:15;118.682;
05.01.2022 02:30;115.178;
05.01.2022 02:45;118.541;
05.01.2022 03:00;114.909;
05.01.2022 03:15;110.244;
05.01.2022 03:30;111.283;
05.01.2022 03:45;113.829;
05.01.2022 04:00;97.284;
05.01.2022 04:15;100.846;
05.01.2022 04:30;103.369;
05.01.2022 04:45;104.772;
05.01.2022 05:00;106.301;
05.01.2022 05:15;113.187;
05.01.2022 05:30;115.206;
05.01.2022 05:45;120.702;
05.01.2022 06:00;120.409;
05.01.2022 06:15;123.149;
05.01.2022 06:30;138.157;
05.01.2022 06:45;143.691;
05.01.2022 07:00;147.470;
05.01.2022 07:15;143.379;
05.01.2022 07:30;142.470;
05.01.2022 07:45;158.195;
05.01.2022 08:00;160.948;
05.01.2022 08:15;160.639;
05.01.2022 08:30;167.454;
05.01.2022 08:45;177.843;
05.01.2022 09:00;176.483;
05.01.2022 09:15;175.367;
05.01.2022 09:30;171.012;
05.01.2022 09:45;163.308;
05.01.2022 10:00;158.032;
05.01.2022 10:15;158.001;
05.01.2022 10:30;155.121;
05.01.2022 10:45;148.858;
05.01.2022 11:00;151.135;
05.01.2022 11:15;152.229;
05.01.2022 11:30;140.335;
05.01.2022 11:45;138.685;
05.01.2022 12:00;140.243;
05.01.2022 12:15;147.379;
05.01.2022 12:30;144.352;
05.01.2022 12:45;151.216;
05.01.2022 13:00;155.042;
05.01.2022 13:15;158.129;
05.01.2022 13:30;160.674;
05.01.2022 13:45;164.283;
05.01.2022 14:00;159.874;
05.01.2022 14:15;161.500;
05.01.2022 14:30;165.467;
05.01.2022 14:45;160.605;
05.01.2022 15:00;153.896;
05.01.2022 15:15;155.705;
05.01.2022 15:30;151.604;
05.01.2022 15:45;153.616;
05.01.2022 16:00;157.343;
05.01.2022 16:15;159.319;
05.01.2022 16:30;158.774;
05.01.2022 16:45;152.998;
05.01.2022 17:00;155.255;
05.01.2022 17:15;162.426;
05.01.2022 17:30;163.792;
05.01.2022 17:45;166.910;
05.01.2022 18:00;163.264;
05.01.2022 18:15;160.746;
05.01.2022 18:30;157.540;
05.01.2022 18:45;154.949;
05.01.2022 19:00;156.928;
05.01.2022 19:15;159.367;
05.01.2022 19:30;163.936;
05.01.2022 19:45;170.689;
05.01.2022 20:00;172.149;
05.01.2022 20:15;170.426;
05.01.2022 20:30;164.571;
05.01.2022 20:45;163.005;
05.01.2022 21:00;160.730;
05.01.2022 21:15;157.337;
05.01.2022 21:30;157.071;
05.01.2022 21:45;157.852;
05.01.2022 22:00;153.751;
05.01.2022 22:15;154.799;
05.01.2022 22:30;145.966;
05.01.2022 22:45;143.491;
05.01.2022 23:00;143.105;
05.01.2022 23:15;141.309;
05.01.2022 23:30;136.528;
05.01.2022 23:45;130.737;
06.01.2022 00:00;132.080;
06.01.2022 00:15;135.999;
06.01.2022 00:30;137.889;
06.01.2022 00:45;132.510;
06.01.2022 01:00;132.877;
06.01.2022 01:15;131.993;
06.01.2022 01:30;127.638;
06.01.2022 01:45;128.713;
06.01.2022 02:00;129.126;
06.01.2022 02:15;122.085;
06.01.2022 02:30;123.380;
06.01.2022 02:45;124.090;
06.01.2022 03:00;126.880;
06.01.2022 03:15;129.132;
06.01.2022 03:30;126.427;
06.01.2022 03:45;129.611;
06.01.2022 04:00;130.808;
06.01.2022 04:15;131.490;
06.01.2022 04:30;130.284;
06.01.2022 04:45;134.446;
06.01.2022 05:00;138.907;
06.01.2022 05:15;144.382;
06.01.2022 05:30;143.115;
06.01.2022 05:45;141.153;
06.01.2022 06:00;148.194;
06.01.2022 06:15;163.976;
06.01.2022 06:30;173.179;
06.01.2022 06:45;178.977;
06.01.2022 07:00;184.643;
06.01.2022 07:15;188.369;
06.01.2022 07:30;195.793;
06.01.2022 07:45;197.136;
06.01.2022 08:00;198.609;
06.01.2022 08:15;196.303;
06.01.2022 08:30;198.815;
06.01.2022 08:45;205.273;
06.01.2022 09:00;202.639;
06.01.2022 09:15;201.278;
06.01.2022 09:30;200.531;
06.01.2022 09:45;199.583;
06.01.2022 10:00;201.907;
06.01.2022 10:15;206.808;
06.01.2022 10:30;208.605;
06.01.2022 10:45;201.961;
06.01.2022 11:00;195.640;
06.01.2022 11:15;194.094;
06.01.2022 11:30;191.184;
06.01.2022 11:45;186.449;
06.01.2022 12:00;184.100;
06.01.2022 12:15;182.144;
06.01.2022 12:30;185.082;
06.01.2022 12:45;193.642;
06.01.2022 13:00;199.010;
06.01.2022 13:15;198.027;
06.01.2022 13:30;201.716;
06.01.2022 13:45;203.212;
06.01.2022 14:00;204.159;
06.01.2022 14:15;205.093;
06.01.2022 14:30;210.428;
06.01.2022 14:45;213.864;
06.01.2022 15:00;223.191;
06.01.2022 15:15;229.256;
06.01.2022 15:30;234.690;
06.01.2022 15:45;242.929;
06.01.2022 16:00;251.600;
06.01.2022 16:15;256.308;
06.01.2022 16:30;261.697;
06.01.2022 16:45;261.296;
06.01.2022 17:00;264.024;
06.01.2022 17:15;275.083;
06.01.2022 17:30;283.407;
06.01.2022 17:45;287.243;
06.01.2022 18:00;289.796;
06.01.2022 18:15;288.875;
06.01.2022 18:30;286.968;
06.01.2022 18:45;285.906;
06.01.2022 19:00;278.661;
06.01.2022 19:15;267.454;
06.01.2022 19:30;261.529;
06.01.2022 19:45;258.602;
06.01.2022 20:00;253.046;
06.01.2022 20:15;248.565;
06.01.2022 20:30;243.434;
06.01.2022 20:45;232.670;
06.01.2022 21:00;221.427;
06.01.2022 21:15;208.142;
06.01.2022 21:30;201.939;
06.01.2022 21:45;202.282;
06.01.2022 22:00;197.830;
06.01.2022 22:15;201.970;
06.01.2022 22:30;196.074;
06.01.2022 22:45;191.381;
06.01.2022 23:00;189.304;
06.01.2022 23:15;184.416;
06.01.2022 23:30;183.370;
06.01.2022 23:45;180.773;
07.01.2022 00:00;175.656;
07.01.2022 00:15;166.372;
07.01.2022 00:30;158.622;
07.01.2022 00:45;149.830;
07.01.2022 01:00;145.277;
07.01.2022 01:15;147.568;
07.01.2022 01:30;144.744;
07.01.2022 01:45;145.014;
07.01.2022 02:00;143.971;
07.01.2022 02:15;142.774;
07.01.2022 02:30;141.117;
07.01.2022 02:45;140.080;
07.01.2022 03:00;141.756;
07.01.2022 03:15;143.524;
07.01.2022 03:30;145.241;
07.01.2022 03:45;142.402;
07.01.2022 04:00;138.883;
07.01.2022 04:15;131.001;
07.01.2022 04:30;127.294;
07.01.2022 04:45;128.370;
07.01.2022 05:00;132.736;
07.01.2022 05:15;135.150;
07.01.2022 05:30;136.446;
07.01.2022 05:45;135.152;
07.01.2022 06:00;131.821;
07.01.2022 06:15;137.119;
07.01.2022 06:30;142.568;
07.01.2022 06:45;153.702;
07.01.2022 07:00;160.812;
07.01.2022 07:15;172.953;
07.01.2022 07:30;175.619;
07.01.2022 07:45;174.090;
07.01.2022 08:00;175.224;
07.01.2022 08:15;175.240;
07.01.2022 08:30;170.114;
07.01.2022 08:45;174.264;
07.01.2022 09:00;182.094;
07.01.2022 09:15;184.857;
07.01.2022 09:30;190.619;
07.01.2022 09:45;189.553;
07.01.2022 10:00;189.931;
07.01.2022 10:15;189.518;
07.01.2022 10:30;190.841;
07.01.2022 10:45;188.058;
07.01.2022 11:00;186.587;
07.01.2022 11:15;186.761;
07.01.2022 11:30;178.539;
07.01.2022 11:45;180.608;
07.01.2022 12:00;184.481;
07.01.2022 12:15;183.187;
07.01.2022 12:30;192.096;
07.01.2022 12:45;198.310;
07.01.2022 13:00;198.978;
07.01.2022 13:15;191.171;
07.01.2022 13:30;194.248;
07.01.2022 13:45;193.593;
07.01.2022 14:00;191.383;
07.01.2022 14:15;194.282;
07.01.2022 14:30;202.409;
07.01.2022 14:45;203.935;
07.01.2022 15:00;209.394;
07.01.2022 15:15;209.069;
07.01.2022 15:30;207.350;
07.01.2022 15:45;207.423;
07.01.2022 16:00;204.286;
07.01.2022 16:15;201.928;
07.01.2022 16:30;205.209;
07.01.2022 16:45;197.799;
07.01.2022 17:00;205.533;
07.01.2022 17:15;210.081;
07.01.2022 17:30;207.519;
07.01.2022 17:45;205.195;
07.01.2022 18:00;205.446;
07.01.2022 18:15;199.478;
07.01.2022 18:30;199.088;
07.01.2022 18:45;191.394;
07.01.2022 19:00;185.187;
07.01.2022 19:15;178.452;
07.01.2022 19:30;186.361;
07.01.2022 19:45;191.341;
07.01.2022 20:00;189.526;
07.01.2022 20:15;186.248;
07.01.2022 20:30;176.315;
07.01.2022 20:45;168.244;
07.01.2022 21:00;169.179;
07.01.2022 21:15;165.548;
07.01.2022 21:30;159.829;
07.01.2022 21:45;163.068;
07.01.2022 22:00;162.913;
07.01.2022 22:15;168.147;
07.01.2022 22:30;160.038;
07.01.2022 22:45;153.733;
07.01.2022 23:00;148.977;
07.01.2022 23:15;142.645;
07.01.2022 23:30;140.638;
07.01.2022 23:45;148.659;
08.01.2022 00:00;143.727;
08.01.2022 00:15;138.411;
08.01.2022 00:30;130.957;
08.01.2022 00:45;130.921;
08.01.2022 01:00;129.403;
08.01.2022 01:15;123.150;
08.01.2022 01:30;114.574;
08.01.2022 01:45;118.233;
08.01.2022 02:00;122.471;
08.01.2022 02:15;119.786;
08.01.2022 02:30;112.417;
08.01.2022 02:45;113.167;
08.01.2022 03:00;114.937;
08.01.2022 03:15;117.924;
08.01.2022 03:30;122.778;
08.01.2022 03:45;138.932;
08.01.2022 04:00;152.208;
08.01.2022 04:15;152.851;
08.01.2022 04:30;148.543;
08.01.2022 04:45;136.359;
08.01.2022 05:00;127.910;
08.01.2022 05:15;123.696;
08.01.2022 05:30;114.391;
08.01.2022 05:45;107.132;
08.01.2022 06:00;104.410;
08.01.2022 06:15;104.448;
08.01.2022 06:30;106.793;
08.01.2022 06:45;107.960;
08.01.2022 07:00;116.748;
08.01.2022 07:15;134.066;
08.01.2022 07:30;133.263;
08.01.2022 07:45;135.081;
08.01.2022 08:00;154.512;
08.01.2022 08:15;159.122;
08.01.2022 08:30;152.004;
08.01.2022 08:45;154.491;
08.01.2022 09:00;155.250;
08.01.2022 09:15;158.848;
08.01.2022 09:30;164.774;
08.01.2022 09:45;167.886;
08.01.2022 10:00;170.257;
08.01.2022 10:15;173.026;
08.01.2022 10:30;167.679;
08.01.2022 10:45;158.496;
08.01.2022 11:00;155.107;
08.01.2022 11:15;154.192;
08.01.2022 11:30;148.506;
08.01.2022 11:45;145.548;
08.01.2022 12:00;138.591;
08.01.2022 12:15;128.763;
08.01.2022 12:30;139.962;
08.01.2022 12:45;145.649;
08.01.2022 13:00;147.034;
08.01.2022 13:15;142.489;
08.01.2022 13:30;150.753;
08.01.2022 13:45;155.170;
08.01.2022 14:00;152.934;
08.01.2022 14:15;157.866;
08.01.2022 14:30;153.942;
08.01.2022 14:45;149.628;
08.01.2022 15:00;148.489;
08.01.2022 15:15;152.670;
08.01.2022 15:30;162.425;
08.01.2022 15:45;164.262;
08.01.2022 16:00;160.573;
08.01.2022 16:15;162.509;
08.01.2022 16:30;161.132;
08.01.2022 16:45;163.883;
08.01.2022 17:00;165.791;
08.01.2022 17:15;169.771;
08.01.2022 17:30;169.853;
08.01.2022 17:45;168.398;
08.01.2022 18:00;163.805;
08.01.2022 18:15;160.854;
08.01.2022 18:30;155.177;
08.01.2022 18:45;152.960;
08.01.2022 19:00;149.141;
08.01.2022 19:15;146.915;
08.01.2022 19:30;143.973;
08.01.2022 19:45;141.713;
08.01.2022 20:00;136.910;
08.01.2022 20:15;133.206;
08.01.2022 20:30;129.835;
08.01.2022 20:45;130.954;
08.01.2022 21:00;127.945;
08.01.2022 21:15;122.709;
08.01.2022 21:30;121.744;
08.01.2022 21:45;121.888;
08.01.2022 22:00;121.880;
08.01.2022 22:15;126.431;
08.01.2022 22:30;125.632;
08.01.2022 22:45;125.714;
08.01.2022 23:00;122.188;
08.01.2022 23:15;117.473;
08.01.2022 23:30;111.677;
08.01.2022 23:45;108.653;
09.01.2022 00:00;105.449;
09.01.2022 00:15;103.864;
09.01.2022 00:30;102.334;
09.01.2022 00:45;99.464;
09.01.2022 01:00;96.446;
09.01.2022 01:15;95.522;
09.01.2022 01:30;94.490;
09.01.2022 01:45;95.037;
09.01.2022 02:00;93.718;
09.01.2022 02:15;92.603;
09.01.2022 02:30;93.293;
09.01.2022 02:45;93.631;
09.01.2022 03:00;94.681;
09.01.2022 03:15;94.903;
09.01.2022 03:30;94.608;
09.01.2022 03:45;93.304;
09.01.2022 04:00;89.650;
09.01.2022 04:15;82.264;
09.01.2022 04:30;81.392;
09.01.2022 04:45;80.335;
09.01.2022 05:00;80.139;
09.01.2022 05:15;78.980;
09.01.2022 05:30;79.445;
09.01.2022 05:45;77.699;
09.01.2022 06:00;77.646;
09.01.2022 06:15;78.834;
09.01.2022 06:30;80.270;
09.01.2022 06:45;82.175;
09.01.2022 07:00;82.954;
09.01.2022 07:15;85.500;
09.01.2022 07:30;87.861;
09.01.2022 07:45;87.915;
09.01.2022 08:00;94.153;
09.01.2022 08:15;102.893;
09.01.2022 08:30;111.936;
09.01.2022 08:45;110.094;
09.01.2022 09:00;109.527;
09.01.2022 09:15;105.726;
09.01.2022 09:30;107.257;
09.01.2022 09:45;107.046;
09.01.2022 10:00;106.964;
09.01.2022 10:15;108.529;
09.01.2022 10:30;110.242;
09.01.2022 10:45;108.808;
09.01.2022 11:00;108.559;
09.01.2022 11:15;111.212;
09.01.2022 11:30;111.648;
09.01.2022 11:45;110.020;
09.01.2022 12:00;109.315;
09.01.2022 12:15;102.170;
09.01.2022 12:30;99.568;
09.01.2022 12:45;100.174;
09.01.2022 13:00;102.987;
09.01.2022 13:15;108.589;
09.01.2022 13:30;104.518;
09.01.2022 13:45;104.433;
09.01.2022 14:00;106.261;
09.01.2022 14:15;106.988;
09.01.2022 14:30;106.083;
09.01.2022 14:45;107.659;
09.01.2022 15:00;113.244;
09.01.2022 15:15;122.026;
09.01.2022 15:30;131.798;
09.01.2022 15:45;138.226;
09.01.2022 16:00;147.892;
09.01.2022 16:15;156.029;
09.01.2022 16:30;166.236;
09.01.2022 16:45;176.239;
09.01.2022 17:00;183.683;
09.01.2022 17:15;193.246;
09.01.2022 17:30;207.256;
09.01.2022 17:45;206.953;
09.01.2022 18:00;209.549;
09.01.2022 18:15;212.552;
09.01.2022 18:30;201.866;
09.01.2022 18:45;197.689;
09.01.2022 19:00;193.549;
09.01.2022 19:15;192.793;
09.01.2022 19:30;189.824;
09.01.2022 19:45;191.040;
09.01.2022 20:00;188.928;
09.01.2022 20:15;189.682;
09.01.2022 20:30;183.150;
09.01.2022 20:45;180.444;
09.01.2022 21:00;179.879;
09.01.2022 21:15;176.505;
09.01.2022 21:30;167.074;
09.01.2022 21:45;172.229;
09.01.2022 22:00;178.719;
09.01.2022 22:15;189.192;
09.01.2022 22:30;188.934;
09.01.2022 22:45;188.799;
09.01.2022 23:00;187.549;
09.01.2022 23:15;187.960;
09.01.2022 23:30;188.729;
09.01.2022 23:45;187.476;
10.01.2022 00:00;187.974;
10.01.2022 00:15;186.756;
10.01.2022 00:30;185.395;
10.01.2022 00:45;182.464;
10.01.2022 01:00;179.189;
10.01.2022 01:15;176.509;
10.01.2022 01:30;175.619;
10.01.2022 01:45;175.277;
10.01.2022 02:00;173.867;
10.01.2022 02:15;172.660;
10.01.2022 02:30;172.653;
10.01.2022 02:45;171.946;
10.01.2022 03:00;171.406;
10.01.2022 03:15;172.631;
10.01.2022 03:30;172.260;
10.01.2022 03:45;172.218;
10.01.2022 04:00;172.206;
10.01.2022 04:15;174.154;
10.01.2022 04:30;174.082;
10.01.2022 04:45;177.109;
10.01.2022 05:00;179.575;
10.01.2022 05:15;185.573;
10.01.2022 05:30;187.118;
10.01.2022 05:45;187.914;
10.01.2022 06:00;192.315;
10.01.2022 06:15;204.667;
10.01.2022 06:30;216.272;
10.01.2022 06:45;227.655;